Regional Weather Roundup
Issued by NWS Memphis, TN

Current Version | Previous Version | Text Only | Print | Product List | Glossary On
Versions: 1 2 3 4 5 6 7 8 9 10 11 12 13 14 15 16 17 18 19 20 21 22 23 24 25 26 27 28 29 30 31 32 33 34 35 36 37 38 39 40 41 42 43 44 45 46 47 48 49 50
000
ASUS44 KMEG 270210
RWRMEG
MEMPHIS CWA HOURLY WEATHER ROUNDUP
NATIONAL WEATHER SERVICE MEMPHIS TN
900 PM CDT SUN MAR 26 2017

...WEST TENNESSEE...

CITY           SKY/WX    TMP DP  RH WIND       PRES   REMARKS
MEMPHIS INTL   PTCLDY    66  53  63 SE6       29.95R
NWS MEMPHIS      N/A     63 N/A N/A MISG        N/A
JACKSON        CLOUDY    60  53  77 CALM      29.97R
SOMERVILLE     CLEAR     63  54  72 CALM      29.96R
BOLIVAR        CLEAR     59  52  77 CALM      29.96S
SAVANNAH       PTCLDY    59  57  94 CALM      29.97R
DYERSBURG      CLOUDY    61  54  77 NE3       29.97R
PARIS          CLEAR     54  48  82 CALM      29.99R
HUNTINGDON     PTCLDY    59  52  77 CALM      29.98R


...EASTERN ARKANSAS...

CITY           SKY/WX    TMP DP  RH WIND       PRES   REMARKS
JONESBORO      PTCLDY    60  54  80 E3        29.92S
WEST MEMPHIS   PTCLDY    64  57  78 CALM      29.93S
BATESVILLE     PTCLDY    63  50  63 SE6       29.91R
WALNUT RIDGE   MOCLDY    63  54  72 SE8       29.92R
BLYTHEVILLE    CLOUDY    62  56  80 E5        29.95S
SEARCY         MOCLDY    65  56  72 E6        29.91F
STUTTGART      MOCLDY    70  50  49 E8        29.90S
PINE BLUFF     CLOUDY    66  58  75 SE9       29.88S
MONTICELLO     CLOUDY    71  55  56 SE3       29.89S


...NORTH MISSISSIPPI...

CITY           SKY/WX    TMP DP  RH WIND       PRES   REMARKS
TUPELO         CLEAR     65  54  67 CALM      29.97R
OXFORD         CLEAR     59  54  82 SE5       29.98S
BATESVILLE     CLEAR     60  55  84 CALM      29.97R
TUNICA         CLEAR     61  54  77 SE7       29.95R
CLARKSDALE     CLEAR     66  59  77 E7        29.94S
GREENWOOD      PTCLDY    64  59  83 CALM      29.94R
COLUMBUS       CLEAR     64  59  82 SE5       29.97R
STARKVILLE     CLEAR     68  57  68 CALM      29.98R
GOLDEN TRIANGL CLEAR     70  55  60 S8        29.93R


...SOUTHEAST MISSOURI...

CITY           SKY/WX    TMP DP  RH WIND       PRES   REMARKS
KENNETT        CLOUDY    61  57  88 E6        29.94S
MALDEN         CLEAR     63  54  72 E5        29.96S
WEST PLAINS    CLOUDY    60  48  64 E6        29.91R
POPLAR BLUFF   PTCLDY    58  54  86 E5        29.94S
CAPE GIRARDEAU PTCLDY    54  49  83 CALM      29.97R


...NORTHWEST ALABAMA...

CITY           SKY/WX    TMP DP  RH WIND       PRES   REMARKS
MUSCLE SHOALS  CLEAR     63  54  72 SE5       30.01R


...MIDDLE TENNESSEE...

CITY           SKY/WX    TMP DP  RH WIND       PRES   REMARKS
NASHVILLE      MOCLDY    66  55  67 S3        30.01R
CLARKSVILLE    CLOUDY    61  50  67 NW5       29.99R
COLUMBIA       CLEAR     64  57  77 S3        29.99R


...WESTERN KENTUCKY...

CITY           SKY/WX    TMP DP  RH WIND       PRES   REMARKS
PADUCAH        CLOUDY    56  50  80 CALM      29.98R
FORT CAMPBELL  PTCLDY    63  50  63 CALM      29.99R


...CENTRAL ARKANSAS...

CITY           SKY/WX    TMP DP  RH WIND       PRES   REMARKS
LITTLE ROCK    CLOUDY    65  55  70 E8        29.87F


SKY/WX REPORTED AS FAIR MEANS FEW OR NO CLOUDS BELOW
12 THOUSAND FEET.





USA.gov is the U.S. government's official web portal to all federal, state and local government web resources and services.